sat.trackr.live / text

‹ back to catalog

SKYNET 5D

NORAD 39034 · 2012-075A

PAYLOAD ACTIVE UNKNOWN

§ Identity

Operator
Country
UK
Launch date
2012-12-19
Launch site
FRGUI
Launch vehicle
Mass (kg)
RCS (m²)
5.67

Purposes: comms

External: N2YO · Heavens-Above · Gunter

§ Orbital elements

Epoch: 2026-09-20T03:29:11.664096Z

Period
1,436.12 min
Inclination
0.0718°
Eccentricity
0.0003841
Mean motion
1.00270486 rev/d
Perigee alt
35,770.8 km
Apogee alt
35,803.2 km
Semi-major
42,165.1 km
B*
0.0000e+0
RAAN
350.1871°
Arg perigee
191.8064°
Mean anomaly
282.1133°
Rev number
5,011

§ Raw data

SKYNET 5D1 39034U 12075A   26263.14527389  .00000095  00000+0  00000+0 0  99942 39034   0.0718 350.1871 0003841 191.8064 282.1133  1.00270486 50112

JSON: /api/v1/satellites/39034 · /tle

For live sub-satellite position, see the globe view (requires WebGL).

§ Visibility from observer

Set your observer location to see the next 7 days of passes ≥ 10°. The values pass through the URL so the page stays shareable.

No JS? Fill the form by hand. The geolocation button needs JavaScript.